Location: Prairie State College
(41.5244°N, 87.6382°W)
Time: 22:44:54
(UTC-05:00)

MSX - Visible Passes

Search period start: 20 October 2014 00:00
Search period end: 30 October 2014 00:00
Orbit: 895 x 906 km, 98.8° (Epoch: 12 October)

Date Brightness Start Highest point End Pass type
(mag) Time Alt. Az. Time Alt. Az. Time Alt. Az.
20 Oct 5.2 19:06:23 16° ENE 19:07:24 17° ENE 19:10:55 10° NNE visible
20 Oct 4.2 20:49:27 61° NW 20:49:27 61° NW 20:54:13 10° NNW visible
21 Oct 5.2 19:09:25 17° ENE 19:10:11 18° ENE 19:13:52 10° NNE visible
21 Oct 4.3 20:52:29 55° NW 20:52:29 55° NW 20:57:02 10° NNW visible
22 Oct 5.1 19:12:27 19° ENE 19:12:58 19° ENE 19:16:49 10° NNE visible
22 Oct 4.5 20:55:31 50° NW 20:55:31 50° NW 20:59:51 10° NNW visible
23 Oct 5.1 19:15:29 20° ENE 19:15:45 20° ENE 19:19:45 10° NNE visible
23 Oct 4.7 20:58:33 46° NW 20:58:33 46° NW 21:02:39 10° NNW visible
24 Oct 5.0 19:18:31 21° ENE 19:18:32 21° ENE 19:22:40 10° NNE visible
24 Oct 4.8 21:01:35 42° NW 21:01:35 42° NW 21:05:28 10° NNW visible
25 Oct 5.0 19:21:32 22° ENE 19:21:32 22° ENE 19:25:35 10° NNE visible
25 Oct 5.0 21:04:37 38° NW 21:04:37 38° NW 21:08:16 10° NNW visible
26 Oct 5.0 19:24:34 23° NE 19:24:34 23° NE 19:28:30 10° NNE visible
26 Oct 5.1 21:07:38 35° NW 21:07:38 35° NW 21:11:04 10° NNW visible
27 Oct 4.9 19:27:36 24° NE 19:27:36 24° NE 19:31:24 10° NNE visible
27 Oct 5.3 21:10:40 32° NW 21:10:40 32° NW 21:13:52 10° NNW visible
28 Oct 4.9 19:30:37 25° NE 19:30:37 25° NE 19:34:18 10° N visible
28 Oct 5.4 21:13:41 29° NW 21:13:41 29° NW 21:16:40 10° NNW visible
29 Oct 4.9 19:33:38 25° NE 19:33:38 25° NE 19:37:12 10° N visible
29 Oct 5.6 21:16:42 27° NW 21:16:42 27° NW 21:19:27 10° NNW visible
